Regional Weather Roundup
Issued by NWS Kansas City/Pleasant Hill, MO

Home | Current Version | Previous Version | Text Only | Print | Product List | Glossary On
Versions: 1 2 3 4 5 6 7 8 9 10 11 12 13 14 15 16 17 18 19 20 21 22 23 24 25 26 27 28 29 30 31 32 33 34 35 36 37 38 39 40 41 42 43 44 45 46 47 48 49 50
000
ASUS43 KEAX 261111
RWREAX

WEATHER ROUNDUP FOR EASTERN KANSAS AND NORTHWEST MISSOURI
NATIONAL WEATHER SERVICE KANSAS CITY/PLEASANT HILL MO
600 AM CDT SAT JUL 26 2014

KSZ040-057-103>105-MOZ028-029-037-043-261200-
...KANSAS CITY METROPOLITAN AREA...

CITY           SKY/WX    TMP DP  RH WIND       PRES   REMARKS
K.C. INTL      MOCLDY    76  70  82 SW6       29.81S
K.C. DOWNTOWN  PTCLDY    82  70  66 SW14      29.80S
LEES SUMMIT    CLEAR     78  70  76 SW9       29.84S
OLATHE - IXD   CLEAR     78  71  79 S14       29.83S
OLATHE - OJC   CLEAR     79  70  74 SW12G18   29.82S
LAWRENCE       PTCLDY    79  69  71 VRB5      29.80S

$$

MOZ001>008-011>017-020>025-030>033-038>040-044>046-053-054-261200-
...NORTHERN AND CENTRAL MISSOURI...

CITY           SKY/WX    TMP DP  RH WIND       PRES   REMARKS
ST. JOSEPH     MOCLDY    73  71  93 CALM      29.79F
MOSBY          MOSUNNY   77  70  78 CALM      29.82R
WHITEMAN AFB   CLEAR     76  64  66 SW12      29.84S
CLINTON        CLEAR     79  73  83 S8        29.87S
SEDALIA        PTCLDY    78  71  79 SW14G25   29.86S HAZE
WARSAW         NOT AVBL
MARSHALL       PTCLDY    79  75  89 SW7       29.85S FOG
CHILLICOTHE      N/A     74  72  93 S3        29.83S
MOBERLY        PTCLDY    73  68  83 SW6       29.86R
KIRKSVILLE     PTCLDY    74  71  91 SW6       29.83S

$$

MOZ041-047>049-056>058-063>065-088>090-097-261200-
...EASTERN AND SOUTHERN MISSOURI...

CITY           SKY/WX    TMP DP  RH WIND       PRES   REMARKS
ST. LOUIS INTL PTCLDY    73  66  78 S8        29.88F
SPIRIT OF STL  CLOUDY    72  67  84 CALM      29.87S
COLUMBIA       PTCLDY    72  71  97 S7        29.87R
JEFFERSON CITY PTCLDY    74  70  87 CALM      29.87R
MEXICO         PTCLDY   N/A N/A N/A S7        29.86R
HANNIBAL       CLEAR     73  70  88 S9        29.85S
ROLLA          PTCLDY    73  69  87 SW13      29.90R
LEBANON        MOCLDY    77  70  78 SW10G18   29.94S
OSAGE BEACH    PTCLDY    77  70  78 SW10      29.90R
SPRINGFIELD    CLOUDY    73  71  93 S10       29.94R
BRANSON        PTCLDY    72  70  94 SW5       29.98S
NEVADA         CLEAR     75  72  88 S9        29.89S
JOPLIN         PTCLDY    77  71  82 S13       29.92R
WEST PLAINS    CLEAR     70  68  93 SW5       29.99R FOG

$$

IAZ060-094-KSZ022-034>040-054-083-096-NEZ052-066-093-261200-
...KANSAS...SOUTHEAST NEBRASKA AND IOWA...

CITY           SKY/WX    TMP DP  RH WIND       PRES   REMARKS
TOPEKA         MOCLDY    83  68  60 SW7       29.79S
MANHATTAN      CLOUDY    84  62  47 SW15      29.76F
EMPORIA        CLOUDY    80  65  59 S14       29.82F
CHANUTE        PTCLDY    75  71  87 S13       29.88R
WICHITA        MOCLDY    76  65  68 S12       29.85F
OMAHA          CLOUDY    72  69  90 NE6       29.79F
LINCOLN        MOCLDY    75  72  90 NE5       29.80S
FALLS CITY     MOCLDY    75  70  84 S6        29.77F
LAMONI         MOCLDY    71  69  93 N7        29.82R FOG
DES MOINES     CLOUDY    71  68  90 N3        29.83R

$$




USA.gov is the U.S. government's official web portal to all federal, state and local government web resources and services.